When you browse on this site, cookies collect data to enhance your experience and personalize the content and advertising you see.
Visit our Privacy Policy to learn more. By continuing to use the site, you agree to this use of cookies and data.
  • In Hungary
  • List of Countries
  • For 7 days
  • Water Temperature
  • Weather Map
  • News
  • Weather Widgets
  • user-avatar
    Login

    Hourly Weather Mirsk

    Today, 12 November, Tuesday

    Time Temperature Precipitation Wind Pressure Humidity
    00:00 +3°C° 0 mm 2 mps 723 mmHg 89%
    01:00 +4°C° 0 mm 2 mps 723 mmHg 90%
    02:00 +4°C° 0 mm 2 mps 723 mmHg 91%
    03:00 +3°C° 0 mm 2 mps 723 mmHg 92%
    04:00 +3°C° 0 mm 2 mps 723 mmHg 93%
    05:00 +3°C° 0 mm 2 mps 723 mmHg 92%
    06:00 +3°C° 0 mm 2 mps 723 mmHg 92%
    07:00 +3°C° 0 mm 2 mps 724 mmHg 92%
    08:00 +3°C° 0 mm 2 mps 724 mmHg 89%
    09:00 +4°C° 0 mm 2 mps 724 mmHg 86%
    10:00 +4°C° 0 mm 2 mps 724 mmHg 83%
    11:00 +5°C° 0.1 mm 2 mps 724 mmHg 83%
    12:00 +5°C° 0.1 mm 2 mps 724 mmHg 84%
    13:00 +5°C° 0.1 mm 2 mps 724 mmHg 84%
    14:00 +5°C° 0.2 mm 2 mps 723 mmHg 87%
    15:00 +4°C° 0.2 mm 2 mps 723 mmHg 90%
    16:00 +5°C° 0.2 mm 1 mps 722 mmHg 92%
    17:00 +5°C° 0.4 mm 1 mps 722 mmHg 93%
    18:00 +5°C° 0.4 mm 1 mps 722 mmHg 93%
    19:00 +5°C° 0.4 mm 1 mps 722 mmHg 94%
    20:00 +5°C° 0.9 mm 1 mps 722 mmHg 95%
    21:00 +4°C° 0.9 mm 1 mps 722 mmHg 95%
    22:00 +4°C° 0.9 mm 1 mps 721 mmHg 96%
    23:00 +4°C° 1 mm 1 mps 721 mmHg 96%

    Tomorrow, 13 November, Wednesday

    Time Temperature Precipitation Wind Pressure Humidity
    00:00 +4°C° 1 mm 1 mps 721 mmHg 96%
    01:00 +3°C° 1 mm 1 mps 721 mmHg 97%
    02:00 +4°C° 0.1 mm 1 mps 720 mmHg 97%
    03:00 +4°C° 0.1 mm 1 mps 720 mmHg 97%
    04:00 +4°C° 0.1 mm 1 mps 719 mmHg 97%
    05:00 +4°C° 0.1 mm 1 mps 719 mmHg 96%
    06:00 +4°C° 0.1 mm 1 mps 719 mmHg 96%
    07:00 +4°C° 0.1 mm 1 mps 719 mmHg 96%
    08:00 +4°C° 0.1 mm 1 mps 719 mmHg 95%
    09:00 +4°C° 0.1 mm 1 mps 719 mmHg 95%
    10:00 +4°C° 0.1 mm 1 mps 719 mmHg 94%
    11:00 +4°C° 0.7 mm 1 mps 719 mmHg 94%
    12:00 +4°C° 0.7 mm 1 mps 719 mmHg 95%
    13:00 +3°C° 0.7 mm 2 mps 719 mmHg 95%
    14:00 +3°C° 0.5 mm 2 mps 719 mmHg 96%
    15:00 +3°C° 0.5 mm 2 mps 719 mmHg 96%
    16:00 +3°C° 0.5 mm 2 mps 719 mmHg 96%
    17:00 +3°C° 1.2 mm 2 mps 719 mmHg 96%
    18:00 +2°C° 1.2 mm 3 mps 719 mmHg 96%
    19:00 +1°C° 1.2 mm 3 mps 719 mmHg 97%
    20:00 +1°C° 2.4 mm 3 mps 719 mmHg 97%
    21:00 +1°C° 2.4 mm 2 mps 719 mmHg 97%
    22:00 +1°C° 2.4 mm 2 mps 719 mmHg 98%
    23:00 +1°C° 1.4 mm 2 mps 720 mmHg 98%

    Day after tomorrow, 14 November, Thursday

    Time Temperature Precipitation Wind Pressure Humidity
    00:00 +1°C° 1.4 mm 2 mps 720 mmHg 98%
    01:00 +1°C° 1.4 mm 2 mps 721 mmHg 98%
    02:00 +1°C° 0.1 mm 2 mps 721 mmHg 98%
    03:00 +2°C° 0.1 mm 1 mps 721 mmHg 98%
    04:00 +2°C° 0.1 mm 1 mps 721 mmHg 98%
    05:00 +1°C° 0 mm 1 mps 721 mmHg 96%
    06:00 +1°C° 0 mm 1 mps 722 mmHg 94%
    07:00 +1°C° 0 mm 1 mps 722 mmHg 92%
    08:00 +2°C° 0 mm 1 mps 722 mmHg 92%
    09:00 +3°C° 0 mm 1 mps 723 mmHg 91%
    10:00 +3°C° 0 mm 1 mps 723 mmHg 91%
    11:00 +4°C° 0 mm 1 mps 723 mmHg 90%
    12:00 +4°C° 0 mm 2 mps 723 mmHg 90%
    13:00 +4°C° 0 mm 2 mps 723 mmHg 90%
    14:00 +4°C° 0 mm 2 mps 723 mmHg 91%
    15:00 +4°C° 0 mm 2 mps 723 mmHg 93%
    16:00 +3°C° 0 mm 2 mps 722 mmHg 95%
    17:00 +4°C° 0 mm 2 mps 722 mmHg 95%
    18:00 +4°C° 0 mm 2 mps 722 mmHg 95%
    19:00 +3°C° 0 mm 3 mps 722 mmHg 95%
    20:00 +3°C° 0 mm 3 mps 722 mmHg 95%
    21:00 +3°C° 0 mm 3 mps 722 mmHg 96%
    22:00 +4°C° 0 mm 3 mps 721 mmHg 96%
    23:00 +4°C° 0 mm 3 mps 721 mmHg 96%

    15 November, Friday

    Time Temperature Precipitation Wind Pressure Humidity
    00:00 +4°C° 0 mm 3 mps 721 mmHg 96%
    01:00 +5°C° 0 mm 3 mps 720 mmHg 96%
    02:00 +5°C° 0 mm 4 mps 720 mmHg 96%
    03:00 +5°C° 0 mm 4 mps 720 mmHg 96%
    04:00 +5°C° 0 mm 4 mps 719 mmHg 95%
    05:00 +5°C° 0 mm 4 mps 719 mmHg 94%
    06:00 +6°C° 0 mm 4 mps 719 mmHg 93%
    07:00 +6°C° 0 mm 5 mps 719 mmHg 92%
    08:00 +7°C° 0 mm 5 mps 719 mmHg 90%
    09:00 +8°C° 0 mm 5 mps 719 mmHg 87%
    10:00 +9°C° 0 mm 5 mps 720 mmHg 85%
    11:00 +10°C° 0 mm 5 mps 720 mmHg 82%
    12:00 +10°C° 0 mm 5 mps 720 mmHg 80%
    13:00 +12°C° 0 mm 5 mps 720 mmHg 77%
    14:00 +10°C° 0 mm 5 mps 720 mmHg 78%
    15:00 +10°C° 0 mm 5 mps 719 mmHg 79%
    16:00 +9°C° 0 mm 5 mps 719 mmHg 80%
    17:00 +9°C° 0 mm 5 mps 720 mmHg 81%
    18:00 +9°C° 0 mm 5 mps 720 mmHg 83%
    19:00 +8°C° 0 mm 5 mps 720 mmHg 84%
    20:00 +8°C° 0 mm 4 mps 721 mmHg 84%
    21:00 +8°C° 0 mm 4 mps 721 mmHg 84%
    22:00 +8°C° 0 mm 4 mps 721 mmHg 84%
    23:00 +8°C° 0 mm 4 mps 721 mmHg 85%

    16 November, Saturday

    Time Temperature Precipitation Wind Pressure Humidity
    00:00 +8°C° 0 mm 4 mps 722 mmHg 85%
    01:00 +8°C° 0 mm 4 mps 722 mmHg 86%
    02:00 +8°C° 0 mm 4 mps 722 mmHg 85%
    03:00 +8°C° 0 mm 4 mps 721 mmHg 84%
    04:00 +8°C° 0 mm 4 mps 721 mmHg 84%
    05:00 +8°C° 0 mm 4 mps 721 mmHg 84%
    06:00 +8°C° 0 mm 4 mps 721 mmHg 84%
    07:00 +8°C° 0 mm 4 mps 721 mmHg 85%
    08:00 +10°C° 0 mm 4 mps 722 mmHg 84%
    09:00 +9°C° 0 mm 5 mps 723 mmHg 84%
    10:00 +9°C° 0 mm 5 mps 724 mmHg 83%
    11:00 +10°C° 0 mm 4 mps 725 mmHg 81%
    12:00 +10°C° 0 mm 4 mps 725 mmHg 79%
    13:00 +10°C° 0 mm 4 mps 726 mmHg 76%
    14:00 +9°C° 0 mm 3 mps 726 mmHg 79%
    15:00 +8°C° 0 mm 2 mps 727 mmHg 81%
    16:00 +8°C° 0 mm 1 mps 727 mmHg 84%
    17:00 +8°C° 0 mm 1 mps 728 mmHg 85%
    18:00 +7°C° 0 mm 1 mps 728 mmHg 86%
    19:00 +6°C° 0 mm 1 mps 729 mmHg 88%
    20:00 +7°C° 0 mm 1 mps 729 mmHg 88%
    21:00 +7°C° 0 mm 1 mps 729 mmHg 88%
    22:00 +7°C° 0 mm 1 mps 729 mmHg 88%
    23:00 +6°C° 0 mm 2 mps 729 mmHg 89%

    17 November, Sunday

    Time Temperature Precipitation Wind Pressure Humidity
    00:00 +7°C° 0 mm 2 mps 729 mmHg 90%
    01:00 +7°C° 0 mm 3 mps 728 mmHg 91%
    02:00 +7°C° 0 mm 3 mps 728 mmHg 92%
    03:00 +7°C° 0 mm 3 mps 727 mmHg 93%
    04:00 +6°C° 0 mm 4 mps 727 mmHg 94%
    05:00 +7°C° 0 mm 4 mps 726 mmHg 92%
    06:00 +7°C° 0 mm 4 mps 726 mmHg 91%
    07:00 +7°C° 0 mm 4 mps 726 mmHg 90%
    08:00 +8°C° 0 mm 5 mps 726 mmHg 85%
    09:00 +10°C° 0 mm 5 mps 726 mmHg 81%
    10:00 +11°C° 0 mm 6 mps 726 mmHg 77%
    11:00 +11°C° 0 mm 6 mps 725 mmHg 76%
    12:00 +13°C° 0 mm 6 mps 725 mmHg 74%
    13:00 +13°C° 0 mm 6 mps 724 mmHg 73%
    14:00 +11°C° 0 mm 6 mps 724 mmHg 75%
    15:00 +11°C° 0 mm 6 mps 724 mmHg 77%
    16:00 +10°C° 0 mm 6 mps 723 mmHg 79%
    17:00 +10°C° 0 mm 6 mps 723 mmHg 79%
    18:00 +10°C° 0 mm 6 mps 723 mmHg 79%
    19:00 +10°C° 0 mm 7 mps 723 mmHg 80%
    20:00 +10°C° 0 mm 7 mps 723 mmHg 79%
    21:00 +10°C° 0 mm 7 mps 722 mmHg 79%
    22:00 +10°C° 0 mm 7 mps 722 mmHg 79%
    23:00 +10°C° 0 mm 7 mps 722 mmHg 79%
    Show more